Temperature
8 8 8 8 7 7 7 7 7 7 7 7 6 6 6 6 5 5 5 5 5 6 6 6 6 6 6 6 6 6 6 6 5 5 5 5 4 4
7 7 7 7 7 7 7 6 6 6 6 6 6 6 5 5 5 5 5 5 5 5 5 5 5 5 5 5 5 5 5 5 5 4 4 4 4 4
6 6 6 6 6 6 6 6 6 5 5 5 5 5 5 4 4 4 4 4 4 4 4 4 4 4 4 4 4 4 4 4 4 4 3 3 3 3
5 5 5 5 5 5 5 5 5 5 5 4 4 4 4 4 4 3 3 3 3 3 3 3 3 3 3 3 3 3 3 3 3 3 3 3 2 2
5 4 4 4 4 4 4 4 4 4 4 4 4 3 3 3 3 3 2 2 2 2 2 2 2 2 2 2 2 2 2 2 2 2 2 2 2 2
4 4 4 4 3 3 3 3 3 3 3 3 3 3 2 2 2 2 2 2 2 1 1 1 1 2 2 2 2 2 2 2 2 1 1 1 1 1
3 3 3 3 3 3 3 3 3 2 2 2 2 2 2 1 1 1 1 1 1 1 1 1 1 1 1 1 1 1 1 1 1 1 1 1 0 0
2 2 2 2 2 2 2 2 2 2 2 1 1 1 1 1 0 0 0 0 -0 -0 0 -0 -0 -0 -0 0 0 0 0 0 0 0 -0 -0 -0 -0
2 2 2 2 2 2 2 2 2 1 1 1 1 0 0 0 -0 -0 -0 -1 -1 -1 -1 -1 -1 -1 -1 -1 -1 -1 -1 -1 -1 -1 -1 -1 -1 -1
1 1 1 1 1 1 1 1 1 1 0 0 -0 -0 -1 -1 -1 -1 -1 -1 -1 -2 -2 -2 -2 -2 -2 -1 -1 -1 -1 -1 -1 -1 -2 -2 -2 -2
1 1 1 1 1 1 1 1 0 0 -0 -1 -1 -1 -1 -1 -1 -1 -1 -1 -2 -2 -2 -3 -2 -2 -2 -2 -2 -2 -2 -2 -2 -2 -2 -2 -2 -2
1 0 0 0 0 0 0 0 -0 -0 -1 -1 -1 -1 -1 -2 -2 -2 -2 -2 -3 -3 -3 -3 -3 -3 -3 -3 -3 -3 -3 -3 -3 -3 -3 -3 -3 -3
0 0 0 0 -0 -0 -0 -0 -1 -1 -1 -1 -1 -2 -2 -2 -2 -2 -3 -3 -3 -3 -4 -4 -4 -4 -4 -3 -3 -3 -3 -3 -3 -3 -3 -3 -3 -4
0 0 0 -0 -0 -0 -1 -1 -1 -1 -1 -2 -2 -2 -2 -2 -3 -3 -3 -3 -3 -4 -4 -4 -4 -4 -5 -4 -3 -3 -3 -4 -4 -4 -4 -4 -4 -4
0 -0 -0 -0 -1 -1 -1 -1 -1 -1 -2 -2 -2 -2 -3 -3 -3 -3 -4 -4 -4 -4 -4 -5 -5 -5 -5 -5 -4 -4 -4 -3 -4 -4 -4 -4 -4 -4
-0 -0 -1 -1 -1 -1 -1 -1 -1 -2 -2 -2 -2 -3 -3 -3 -4 -4 -4 -4 -4 -4 -4 -5 -5 -5 -5 -5 -5 -4 -4 -5 -4 -5 -5 -4 -4 -4
-1 -1 -1 -1 -1 -1 -1 -1 -2 -2 -2 -2 -3 -3 -3 -4 -4 -4 -4 -4 -4 -4 -4 -5 -5 -6 -6 -6 -5 -5 -5 -5 -5 -5 -5 -5 -4 -5
-1 -0 -0 -1 -1 -1 -1 -1 -2 -2 -2 -3 -3 -3 -4 -4 -4 -5 -5 -5 -5 -5 -5 -6 -6 -7 -6 -6 -5 -5 -5 -5 -5 -6 -6 -6 -5 -5
-1 -0 -0 -1 -1 -1 -2 -2 -2 -3 -3 -3 -3 -4 -4 -4 -5 -5 -5 -5 -5 -6 -6 -6 -7 -8 -8 -7 -6 -6 -6 -6 -6 -6 -6 -7 -6 -5
-1 -0 -1 -1 -1 -2 -2 -2 -3 -3 -3 -3 -4 -4 -4 -5 -5 -5 -5 -6 -6 -6 -6 -6 -7 -8 -8 -8 -8 -6 -6 -7 -7 -7 -7 -7 -7 -6
-1 -1 -1 -2 -2 -2 -3 -3 -3 -3 -3 -4 -4 -4 -5 -5 -5 -5 -6 -6 -7 -7 -6 -6 -7 -8 -9 -9 -9 -6 -6 -7 -7 -8 -7 -8 -7 -7
-1 -1 -2 -2 -2 -3 -3 -3 -3 -4 -4 -4 -4 -5 -5 -5 -6 -6 -6 -7 -7 -7 -7 -7 -7 -8 -9 -9 -9 -7 -6 -6 -7 -7 -8 -8 -9 -8
-1 -2 -2 -2 -3 -3 -4 -4 -4 -4 -4 -5 -5 -5 -5 -6 -6 -6 -7 -7 -7 -7 -8 -8 -8 -8 -9 -9 -9 -9 -8 -7 -7 -7 -6 -7 -8 -8
Wind_Speed
2 2 1 1 2 2 1 0 1 2 2 2 3 4 7 9 10 10 9 10 11 11 11 11 10 8 7 5 4 4 5 8 10 11 12 11 10 9
1 2 2 2 2 2 2 2 1 1 2 2 3 3 5 6 8 9 9 10 11 12 12 12 12 12 10 9 7 7 7 7 7 8 8 8 9 8
2 3 3 4 3 3 3 2 2 2 1 2 2 3 3 4 5 7 8 8 9 11 11 11 11 11 10 9 9 8 6 4 3 5 5 6 7 7
3 4 4 3 4 4 3 3 3 2 1 2 2 2 3 3 3 3 4 6 7 9 9 9 10 10 9 8 7 7 6 4 3 1 2 3 5 6
5 5 4 5 4 4 4 3 2 2 2 3 2 2 2 1 2 2 3 3 4 6 7 8 8 8 8 7 6 5 5 4 3 2 2 2 4 5
6 6 6 5 4 4 4 4 3 3 3 3 3 2 1 1 2 2 2 3 2 5 6 6 6 6 6 6 5 5 4 4 3 2 2 3 3 5
5 6 6 7 8 6 5 4 4 3 3 3 2 2 1 2 2 2 2 2 2 3 4 4 4 3 3 3 4 4 4 4 4 4 4 4 5 6
5 4 5 5 7 8 9 9 7 4 3 2 1 2 1 2 2 2 2 2 2 3 4 3 2 1 1 2 2 3 4 4 4 4 5 5 6 7
4 3 3 4 5 3 5 7 8 8 6 3 3 2 2 2 2 2 2 1 2 2 2 3 3 2 2 1 1 2 3 4 4 5 6 7 7 8
3 3 3 3 3 3 4 4 3 4 5 5 4 4 4 3 2 1 0 2 3 2 1 1 3 3 3 4 2 1 2 3 4 5 6 7 7 8
2 2 2 3 3 3 2 1 1 1 3 4 4 3 2 3 3 2 2 3 2 2 2 1 2 3 3 2 1 1 2 4 5 6 7 8 9 9
3 2 2 2 3 1 1 1 1 1 1 1 0 1 1 1 1 2 2 2 0 2 2 2 2 3 4 3 3 5 6 7 7 8 9 10 10 9
3 2 3 4 3 2 1 1 1 1 0 1 1 2 2 2 2 2 3 3 2 2 1 2 1 2 1 3 4 4 5 5 6 8 10 11 11 10
3 3 4 6 4 4 3 3 2 1 0 1 2 2 2 2 2 2 1 1 3 5 5 1 1 1 1 2 4 3 4 6 7 6 8 11 11 12
4 5 5 6 5 4 5 6 3 2 2 2 3 3 2 3 2 1 2 4 6 9 10 9 5 3 3 4 4 4 4 4 6 5 5 5 6 7
5 6 7 7 6 6 5 4 3 4 3 3 3 2 2 2 2 3 2 2 3 4 7 10 11 6 5 7 7 8 6 5 4 4 5 6 10 11
5 4 3 3 4 4 4 5 5 4 4 3 3 3 3 3 3 3 3 2 3 3 4 3 8 10 9 6 7 9 9 9 8 7 7 8 7 9
7 4 5 6 6 6 6 5 5 5 5 5 4 4 4 4 3 3 3 4 5 5 5 4 2 3 3 7 12 11 9 9 7 7 6 8 10 7
8 6 6 6 6 6 6 6 5 6 5 5 5 5 5 4 4 4 4 5 5 6 5 4 4 4 6 7 6 11 8 6 5 6 6 7 10 9
7 7 8 7 7 7 6 6 6 5 5 5 6 5 5 5 5 5 5 6 6 6 6 5 5 6 8 7 6 5 9 8 7 9 8 8 10 15
9 9 8 8 7 7 7 7 7 6 6 6 6 6 6 6 6 6 6 10 8 7 8 7 7 10 6 4 8 8 6 13 14 9 8 8 11 10
9 9 8 8 7 7 7 7 7 7 7 7 7 6 6 6 7 8 7 7 7 7 8 7 5 5 5 8 11 12 12 9 14 21 22 19 9 6
9 9 8 8 8 7 7 8 8 8 7 7 7 7 7 7 7 7 8 8 7 8 8 8 6 6 8 9 11 12 14 13 10 10 12 19 25 29
Wind_Direction
350 345 358 6 1 354 348 331 220 232 229 140 96 41 46 57 43 47 43 37 35 34 31 29 26 26 29 38 68 111 133 146 156 166 173 183 189 195
26 29 41 18 18 13 6 3 14 207 203 96 91 60 44 52 48 46 42 41 42 43 41 39 39 42 47 55 69 87 104 119 143 160 172 186 195 202
57 66 58 40 41 25 22 28 33 37 164 112 92 65 55 47 42 41 43 45 43 42 40 41 40 40 46 56 59 68 78 102 147 174 193 207 214 219
66 71 65 58 50 33 37 43 41 33 84 131 98 73 61 47 43 38 38 47 45 41 39 41 42 42 44 48 56 61 67 72 82 111 231 240 240 241
61 64 61 68 59 46 47 47 42 43 56 100 101 87 67 33 42 40 38 41 38 36 34 34 35 36 39 42 46 54 55 49 41 30 357 298 278 266
63 59 56 61 59 54 52 36 41 58 70 90 101 96 83 6 50 38 21 11 12 27 21 16 23 31 32 36 41 41 35 24 12 354 320 298 293 285
82 74 70 70 66 63 63 43 42 57 70 84 94 84 71 49 41 20 11 342 7 27 11 348 347 3 12 31 35 26 12 355 339 325 310 296 285 279
104 95 89 70 73 70 69 62 59 67 71 71 92 106 90 68 51 31 26 25 342 354 13 327 336 353 2 78 27 1 345 331 320 309 299 292 287 282
107 100 99 91 75 63 70 70 62 59 59 77 85 88 88 63 73 40 32 22 274 285 11 323 333 342 326 3 8 345 329 323 315 306 296 289 285 282
105 107 113 112 91 74 73 71 71 61 56 61 76 70 76 66 68 80 278 334 301 301 87 325 324 329 329 319 278 267 305 308 308 308 300 291 286 282
139 116 103 125 121 98 87 81 90 121 101 88 83 77 60 44 37 50 40 38 348 336 29 36 327 330 325 318 265 247 287 295 299 300 298 294 288 285
175 177 169 151 153 130 94 114 113 136 114 115 299 246 218 194 68 98 124 120 54 310 355 37 4 4 337 317 331 323 307 297 296 299 299 296 292 287
186 194 195 186 192 216 226 179 186 148 121 242 252 244 217 185 147 116 116 145 174 238 339 58 16 355 304 303 309 313 315 311 310 302 299 299 294 285
201 201 193 192 206 231 239 234 234 217 265 268 259 250 215 182 158 137 147 202 219 235 263 236 211 222 285 295 287 302 311 305 300 295 295 297 294 291
206 204 198 207 223 239 245 243 236 213 230 243 249 243 208 181 162 184 259 258 259 261 258 242 212 222 219 246 275 291 307 292 283 281 285 279 276 280
221 220 224 231 229 234 246 247 219 212 215 224 240 233 191 179 202 213 229 247 275 278 258 241 222 206 234 249 261 272 269 274 289 283 281 278 274 270
192 187 194 207 218 223 225 224 217 219 230 221 229 232 227 220 226 217 213 217 240 268 283 255 230 223 227 239 260 263 266 267 266 270 274 278 270 262
207 200 210 215 219 221 221 219 214 213 213 213 218 222 227 231 237 231 220 224 246 259 264 263 246 256 259 251 237 253 259 263 266 263 261 275 281 267
219 213 219 221 221 218 215 214 217 215 208 208 213 217 220 226 232 237 238 241 249 255 257 249 235 236 266 280 270 234 236 257 269 270 263 264 275 279
218 220 223 222 220 217 215 216 218 215 209 211 213 216 216 222 232 238 237 239 248 256 262 250 235 232 244 258 269 269 246 250 264 272 274 274 274 279
221 223 223 220 218 215 214 213 212 214 213 211 215 217 218 221 233 238 240 250 252 254 258 257 245 253 250 249 264 267 255 254 256 258 265 274 282 281
223 223 221 218 216 214 212 211 213 216 217 218 219 219 219 222 233 237 240 244 248 251 258 263 253 250 238 250 262 273 282 276 269 270 265 258 258 261
225 222 220 217 215 214 212 212 214 219 219 220 220 220 219 225 231 236 240 243 248 253 260 267 264 253 254 255 263 271 277 282 284 280 271 265 261 260
Height
1512 1512 1512 1512 1512 1513 1513 1514 1515 1514 1514 1514 1513 1513 1513 1513 1512 1511 1510 1509 1508 1507 1507 1506 1506 1505 1505 1506 1507 1508 1510 1512 1514 1517 1519 1522 1524 1525
1508 1507 1507 1507 1507 1508 1508 1509 1509 1510 1510 1510 1509 1510 1509 1509 1508 1507 1506 1505 1505 1504 1504 1503 1503 1502 1502 1503 1504 1505 1507 1509 1511 1513 1515 1518 1519 1521
1503 1503 1503 1503 1503 1503 1504 1504 1504 1505 1505 1506 1506 1505 1505 1505 1504 1504 1503 1502 1501 1501 1501 1500 1500 1500 1501 1501 1502 1503 1505 1506 1508 1510 1511 1513 1515 1516
1499 1499 1499 1499 1499 1499 1499 1500 1500 1500 1501 1501 1501 1502 1501 1501 1501 1500 1500 1499 1499 1498 1498 1498 1498 1498 1499 1499 1500 1501 1502 1503 1504 1506 1507 1509 1510 1511
1495 1495 1495 1495 1495 1495 1496 1496 1496 1496 1497 1497 1497 1498 1498 1498 1497 1497 1497 1496 1496 1496 1496 1496 1496 1496 1496 1496 1497 1498 1499 1500 1501 1502 1503 1504 1505 1506
1492 1492 1492 1492 1492 1492 1493 1493 1493 1493 1493 1494 1494 1494 1494 1494 1494 1494 1494 1494 1493 1493 1493 1493 1493 1493 1493 1493 1494 1494 1495 1496 1496 1497 1498 1499 1499 1500
1488 1489 1489 1489 1489 1490 1490 1490 1490 1491 1491 1491 1491 1491 1491 1491 1491 1490 1490 1490 1490 1490 1490 1490 1489 1489 1490 1490 1490 1490 1491 1491 1492 1492 1493 1493 1494 1495
1486 1486 1487 1487 1487 1487 1487 1487 1488 1488 1488 1488 1488 1488 1488 1488 1488 1488 1487 1487 1487 1488 1487 1487 1486 1486 1486 1486 1486 1486 1486 1487 1487 1488 1488 1488 1489 1489
1484 1484 1485 1485 1485 1485 1485 1485 1486 1485 1485 1486 1485 1485 1486 1485 1485 1485 1485 1485 1485 1484 1484 1484 1484 1483 1483 1483 1483 1483 1483 1483 1483 1483 1484 1484 1484 1484
1482 1483 1483 1483 1483 1483 1483 1483 1483 1483 1483 1483 1483 1483 1483 1483 1483 1483 1483 1482 1482 1482 1482 1482 1481 1481 1480 1480 1480 1479 1479 1479 1479 1479 1479 1479 1480 1480
1480 1480 1481 1481 1481 1481 1481 1481 1481 1481 1481 1481 1481 1481 1481 1481 1481 1481 1480 1480 1480 1480 1479 1479 1478 1478 1478 1477 1477 1477 1477 1476 1476 1476 1476 1475 1475 1475
1478 1478 1479 1479 1479 1479 1479 1478 1478 1479 1479 1479 1479 1479 1479 1479 1479 1479 1478 1478 1478 1477 1477 1477 1476 1476 1475 1474 1474 1474 1474 1473 1473 1472 1472 1471 1471 1470
1476 1476 1476 1477 1477 1477 1477 1476 1476 1477 1477 1477 1477 1477 1477 1476 1476 1476 1476 1476 1476 1475 1475 1474 1474 1473 1473 1472 1471 1471 1470 1469 1469 1468 1467 1467 1466 1465
1474 1474 1474 1474 1474 1474 1474 1474 1474 1474 1474 1474 1474 1474 1474 1474 1474 1474 1473 1473 1473 1473 1472 1471 1470 1470 1468 1467 1466 1466 1466 1465 1464 1463 1462 1461 1461 1460
1471 1471 1471 1472 1472 1472 1472 1472 1472 1472 1471 1471 1471 1471 1471 1471 1471 1471 1470 1470 1469 1469 1469 1468 1467 1466 1465 1463 1461 1460 1460 1459 1459 1458 1457 1456 1455 1454
1468 1468 1468 1468 1468 1468 1469 1469 1469 1469 1468 1468 1468 1468 1468 1468 1467 1467 1467 1466 1466 1465 1465 1464 1463 1462 1460 1459 1457 1455 1455 1454 1453 1452 1450 1449 1449 1448
1464 1464 1464 1465 1465 1465 1465 1465 1465 1465 1465 1465 1465 1464 1464 1464 1463 1463 1462 1461 1461 1460 1460 1459 1458 1456 1455 1454 1451 1450 1449 1448 1447 1446 1444 1442 1442 1441
1459 1459 1460 1460 1460 1461 1461 1461 1461 1461 1461 1461 1460 1460 1460 1459 1459 1458 1458 1457 1456 1455 1454 1454 1452 1451 1449 1447 1447 1444 1444 1443 1441 1440 1438 1435 1433 1434
1454 1454 1455 1455 1455 1456 1456 1456 1456 1456 1456 1456 1456 1455 1455 1454 1454 1453 1452 1451 1450 1450 1449 1448 1447 1445 1444 1441 1440 1440 1438 1436 1435 1433 1432 1429 1426 1425
1448 1449 1449 1450 1450 1450 1451 1451 1451 1451 1451 1450 1450 1450 1450 1449 1448 1447 1447 1446 1445 1444 1443 1442 1442 1440 1439 1437 1433 1432 1433 1431 1428 1426 1424 1422 1419 1418
1442 1443 1443 1444 1444 1444 1445 1445 1445 1445 1445 1445 1444 1444 1444 1443 1442 1442 1441 1440 1439 1438 1436 1436 1436 1435 1433 1431 1427 1424 1425 1425 1422 1420 1417 1414 1411 1409
1435 1436 1436 1437 1437 1438 1438 1438 1438 1438 1438 1438 1438 1438 1437 1437 1436 1435 1434 1434 1432 1431 1430 1430 1429 1428 1426 1424 1420 1417 1416 1416 1415 1413 1411 1409 1406 1401
1428 1429 1429 1429 1430 1430 1431 1431 1431 1431 1431 1431 1431 1431 1430 1430 1429 1429 1428 1427 1426 1425 1424 1423 1422 1420 1418 1417 1414 1411 1408 1407 1405 1403 1402 1401 1399 1396